[[{"header":{"parameterUnit":"m.s-1","parameterCategory":1,"la1":30.2991,"la2":30.254,"lo1":-89.0895,"lo2":-89.0444,"dy":0.0017,"dx":0.0017,"nx":28,"ny":28,"refTime":"2024-07-02T03:00:00:Z","depth":0,"parameterNumber":2,"parameterNumberName":"U-component_of_WINDS"},"data":[0,0,0,0,0,0,0,0,0,0,0,0,0,0,0,0,0,0,0,0,0,0,0,0,0,0,0,0,0,0,0,0,0,0,0,0,0,0,0,0,0,0,0,0,0,0,0,0,0,0,0,0,0,0,0,0,0,0,-0.1979,-0.1979,0,-0.2022,-0.2023,-0.2023,-0.2064,-0.2064,-0.2065,-0.2065,-0.2111,-0.2111,-0.2112,0,0,0,0,0,0,0,0,0,0,0,0,0,-0.1932,-0.1932,-0.1979,-0.1979,-0.198,-0.2022,-0.2023,-0.2023,-0.2064,-0.2064,-0.2065,-0.2065,-0.211,-0.2111,-0.2112,0,0,0,0,0,0,0,0,0,0,0,0,0,-0.1961,-0.1933,-0.1979,-0.2005,-0.2008,-0.2022,-0.2023,-0.2024,-0.2063,-0.2064,-0.2065,-0.2066,-0.211,-0.2111,-0.2112,-0.2104,0,0,-0.2116,-0.2116,0,0,0,0,0,0,0,0,-0.196,-0.1963,-0.2001,-0.2003,-0.2006,-0.2038,-0.2023,-0.2051,-0.2063,-0.2042,-0.2065,-0.2066,-0.2086,-0.2089,-0.2096,-0.2107,-0.2108,-0.2116,-0.2116,-0.2117,-0.2117,0,0,0,0,0,0,0,-0.1958,-0.1962,-0.1996,-0.2001,-0.2005,-0.2015,-0.202,-0.2028,-0.2059,-0.2044,-0.2047,-0.2052,-0.2088,-0.2095,-0.2097,-0.2109,-0.2116,-0.2117,-0.2117,-0.2118,-0.2118,-0.2117,0,0,0,0,0,0,-0.1951,-0.196,-0.1995,-0.1997,-0.1984,-0.2015,-0.2021,-0.2027,-0.206,-0.2065,-0.2051,-0.2054,-0.2092,-0.2096,-0.2099,-0.2093,-0.2117,-0.2118,-0.2119,-0.2118,-0.2117,-0.2117,0,0,0,0,0,0,-0.195,-0.1954,-0.1993,-0.1979,-0.1985,-0.2015,-0.2022,-0.2028,-0.2035,-0.2065,-0.2071,-0.2052,-0.2093,-0.2097,-0.2103,-0.2095,-0.2118,-0.212,-0.2119,-0.2118,-0.2117,-0.208,0,0,0,0,0,0,-0.1949,-0.1953,-0.195,-0.1979,-0.1986,-0.1996,-0.2022,-0.2028,-0.2036,-0.204,-0.2067,-0.2073,-0.2094,-0.2101,-0.2104,-0.2097,-0.212,-0.212,-0.2119,-0.2117,-0.2082,-0.2078,-0.2075,0,0,0,0,0,-0.1947,-0.1938,-0.195,-0.1954,-0.1982,-0.1995,-0.1999,-0.2023,-0.2035,-0.2033,-0.2053,-0.2072,-0.2095,-0.2101,-0.2105,-0.2098,-0.212,-0.2119,-0.2117,-0.2084,-0.2079,-0.2075,0,0,0,0,0,0,-0.1908,-0.1942,-0.1956,-0.1956,-0.1972,-0.2002,-0.1999,-0.2017,-0.203,-0.2033,-0.2063,-0.2069,-0.2072,-0.2086,-0.2092,-0.2093,-0.2111,-0.211,-0.2084,-0.2079,-0.2076,-0.2073,-0.2121,0,0,0,0,0,-0.1899,-0.1906,-0.1936,-0.1934,-0.1941,-0.1969,-0.1975,-0.1993,-0.2011,-0.2018,-0.2038,-0.2055,-0.2067,-0.2074,-0.2086,-0.2085,-0.2092,-0.2082,-0.2078,-0.2074,-0.2074,-0.2075,-0.2072,-0.2112,-0.2112,-0.2112,0,0,-0.1882,-0.1901,-0.1904,-0.1926,-0.1941,-0.1949,-0.1974,-0.1981,-0.1987,-0.2019,-0.2026,-0.2041,-0.2063,-0.2065,-0.2067,-0.2077,-0.2064,-0.2073,-0.207,-0.2071,-0.2073,-0.207,-0.2066,-0.2111,-0.2111,-0.2111,0,0,-0.1854,-0.1869,-0.1869,-0.1883,-0.1905,-0.1924,-0.1924,-0.1951,-0.1962,-0.197,-0.1994,-0.2002,-0.2021,-0.2036,-0.2046,-0.2024,-0.2043,-0.2027,-0.2007,-0.2008,-0.2005,-0.2003,-0.1996,-0.1993,-0.2026,-0.2026,-0.2026,0,-0.1829,-0.1841,-0.1867,-0.1872,-0.1882,-0.1911,-0.1912,-0.1925,-0.1949,-0.1956,-0.1966,-0.1991,-0.2007,-0.2014,-0.2009,-0.2016,-0.2018,-0.2024,-0.2003,-0.2001,-0.1999,-0.1993,-0.1991,-0.2024,-0.2024,-0.2024,-0.2025,0,-0.181,-0.1818,-0.1815,-0.1839,-0.1848,-0.1851,-0.1878,-0.1884,-0.1901,-0.1919,-0.1927,-0.1948,-0.1965,-0.1968,-0.1984,-0.1978,-0.1983,-0.1998,-0.2016,-0.1993,-0.1988,-0.1986,-0.2021,-0.2022,-0.2023,-0.2023,0,0,-0.1759,-0.1797,-0.1796,-0.1807,-0.1834,-0.1841,-0.1846,-0.1863,-0.1868,-0.1884,-0.189,-0.1906,-0.192,-0.1931,-0.1949,-0.195,-0.1934,-0.1966,-0.1967,-0.196,-0.1929,-0.1918,-0.1915,-0.1946,-0.1945,-0.1945,-0.1928,0,-0.1736,-0.1746,-0.177,-0.1773,-0.1781,-0.1809,-0.1814,-0.1831,-0.1848,-0.1858,-0.1877,-0.1888,-0.1905,-0.1913,-0.1915,-0.1935,-0.1928,-0.1937,-0.1952,-0.1953,-0.1947,-0.1913,-0.1901,-0.1884,-0.1926,-0.1926,-0.1925,0,-0.1711,-0.1725,-0.1729,-0.1757,-0.1761,-0.1764,-0.1783,-0.1791,-0.1812,-0.1824,-0.1837,-0.1858,-0.1865,-0.1881,-0.1893,-0.1898,-0.1906,-0.1917,-0.1917,-0.192,-0.1938,-0.1916,-0.1878,-0.1876,-0.1922,-0.1923,-0.1923,0,-0.1674,-0.1695,-0.17,-0.1709,-0.1741,-0.1743,-0.1756,-0.1778,-0.1787,-0.1803,-0.1809,-0.1826,-0.1835,-0.1848,-0.1872,-0.1882,-0.1882,-0.19,-0.1893,-0.1893,-0.1892,-0.1892,-0.1857,-0.1896,-0.1896,-0.1896,-0.1896,0,-0.1647,-0.1648,-0.1685,-0.1688,-0.1691,-0.1718,-0.1721,-0.1737,-0.1756,-0.1763,-0.1789,-0.1795,-0.1827,-0.1838,-0.1857,-0.1865,-0.1868,-0.1879,-0.1885,-0.1878,-0.1876,-0.1884,-0.1886,-0.1895,-0.1895,-0.1895,-0.1896,0,-0.1607,-0.1631,-0.1639,-0.1669,-0.1676,-0.1677,-0.1703,-0.1707,-0.1726,-0.1735,-0.1739,-0.1768,-0.1782,-0.1808,-0.1829,-0.1842,-0.1846,-0.1855,-0.1839,-0.1843,-0.1835,-0.1836,-0.1804,-0.1802,-0.1841,-0.184,-0.184,0,-0.1589,-0.159,-0.162,-0.1627,-0.1639,-0.165,-0.166,-0.1687,-0.1696,-0.172,-0.1722,-0.1738,-0.1752,-0.1774,-0.1797,-0.1814,-0.1824,-0.1812,-0.1827,-0.182,-0.1825,-0.1825,-0.1826,-0.1808,-0.1808,-0.1807,-0.1807,0,-0.1554,-0.1566,-0.1578,-0.1595,-0.1605,-0.162,-0.1636,-0.164,-0.1672,-0.1681,-0.1695,-0.1706,-0.1728,-0.1744,-0.1764,-0.1779,-0.1799,-0.1802,-0.1802,-0.1795,-0.1786,-0.1792,-0.1831,-0.1803,-0.1803,-0.1803,-0.1804,-0.1804,-0.1525,-0.1528,-0.155,-0.1563,-0.1578,-0.1593,-0.1599,-0.1618,-0.1631,-0.1651,-0.1666,-0.168,-0.1702,-0.1731,-0.1745,-0.1756,-0.1765,-0.1764,-0.1764,-0.1764,-0.1762,-0.1783,-0.176,-0.176,-0.176,-0.176,-0.176,0,-0.1492,-0.1508,-0.1519,-0.1541,-0.1552,-0.1569,-0.1588,-0.1596,-0.1607,-0.1626,-0.1639,-0.1657,-0.1673,-0.1697,-0.1716,-0.172,-0.173,-0.1724,-0.1725,-0.1728,-0.1752,-0.1751,-0.1716,-0.1716,-0.1716,-0.1716,-0.1716,-0.1716,-0.1476,-0.1483,-0.1498,-0.1513,-0.1529,-0.1542,-0.1552,-0.1566,-0.1581,-0.1599,-0.1612,-0.1628,-0.165,-0.167,-0.1685,-0.1692,-0.1698,-0.169,-0.17,-0.1722,-0.1726,-0.173,-0.1729,-0.1691,-0.1691,-0.1676,-0.1675,-0.1675]},{"header":{"parameterUnit":"m.s-1","parameterCategory":1,"la1":30.2991,"la2":30.254,"lo1":-89.0895,"lo2":-89.0444,"dy":0.0017,"dx":0.0017,"nx":28,"ny":28,"refTime":"2024-07-02T03:00:00:Z","depth":0,"parameterNumber":3,"parameterNumberName":"V-component_of_WINDS"},"data":[0,0,0,0,0,0,0,0,0,0,0,0,0,0,0,0,0,0,0,0,0,0,0,0,0,0,0,0,0,0,0,0,0,0,0,0,0,0,0,0,0,0,0,0,0,0,0,0,0,0,0,0,0,0,0,0,0,0,3.5469,3.5471,0,3.5604,3.5605,3.5607,3.5596,3.5594,3.5592,3.559,3.5724,3.573,3.5735,0,0,0,0,0,0,0,0,0,0,0,0,0,3.5199,3.5204,3.5469,3.5471,3.5472,3.5603,3.5605,3.5607,3.5596,3.5594,3.5592,3.5589,3.5722,3.5729,3.5735,0,0,0,0,0,0,0,0,0,0,0,0,0,3.5323,3.5205,3.5469,3.5483,3.5486,3.5603,3.5605,3.5608,3.5597,3.5594,3.5591,3.5588,3.572,3.5728,3.5736,3.5847,0,0,3.5761,3.5765,0,0,0,0,0,0,0,0,3.5316,3.5333,3.5479,3.5482,3.5485,3.558,3.5559,3.5688,3.5598,3.5555,3.559,3.5587,3.5678,3.569,3.5722,3.5853,3.5859,3.5762,3.5767,3.577,3.5773,0,0,0,0,0,0,0,3.5307,3.5327,3.5522,3.5481,3.5485,3.5481,3.5496,3.5583,3.5632,3.5558,3.5558,3.5574,3.5679,3.5714,3.5725,3.5861,3.5762,3.5769,3.5774,3.5777,3.609,3.6093,0,0,0,0,0,0,3.5296,3.532,3.5518,3.5526,3.5391,3.5489,3.5505,3.5553,3.5631,3.564,3.5576,3.5573,3.5701,3.5715,3.5729,3.5864,3.577,3.5778,3.5783,3.6086,3.6091,3.6094,0,0,0,0,0,0,3.529,3.5314,3.5512,3.5423,3.5448,3.5496,3.555,3.5557,3.5591,3.5645,3.5653,3.5603,3.5699,3.5718,3.5818,3.5868,3.5782,3.5789,3.6082,3.6088,3.6092,3.6134,0,0,0,0,0,0,3.5282,3.5312,3.5355,3.5424,3.5453,3.56,3.5554,3.5562,3.5606,3.5603,3.5672,3.568,3.5699,3.5806,3.5826,3.5878,3.5796,3.6078,3.6085,3.6091,3.6129,3.614,3.615,0,0,0,0,0,3.5273,3.5361,3.5358,3.5381,3.5509,3.5603,3.5619,3.564,3.561,3.5653,3.5688,3.5678,3.586,3.5816,3.5839,3.5894,3.6075,3.6083,3.609,3.6124,3.6138,3.615,0,0,0,0,0,0,3.5295,3.537,3.5367,3.5481,3.5536,3.5601,3.5657,3.5654,3.5718,3.5712,3.5734,3.575,3.585,3.5882,3.5833,3.6005,3.5963,3.5976,3.5981,3.5995,3.6005,3.5995,3.5802,0,0,0,0,0,3.5314,3.5386,3.5447,3.5541,3.5569,3.5608,3.565,3.5661,3.5719,3.5742,3.5783,3.5838,3.5908,3.5953,3.602,3.6133,3.6147,3.6182,3.6193,3.6201,3.6212,3.6273,3.6289,3.6119,3.6119,3.6119,0,0,3.5352,3.5402,3.5446,3.5547,3.5591,3.5663,3.5628,3.5706,3.576,3.5753,3.5851,3.5883,3.5946,3.6053,3.6102,3.6082,3.6262,3.6211,3.6218,3.6224,3.6283,3.6299,3.6313,3.6125,3.6124,3.6123,0,0,3.5459,3.5505,3.5588,3.5633,3.5701,3.5726,3.5746,3.5812,3.5834,3.5932,3.5928,3.5992,3.6111,3.6156,3.6195,3.6318,3.6311,3.634,3.6395,3.6455,3.6469,3.6481,3.6524,3.654,3.635,3.635,3.635,0,3.5498,3.5609,3.563,3.571,3.5754,3.5752,3.5836,3.5878,3.5964,3.5993,3.597,3.612,3.6162,3.628,3.631,3.6341,3.6364,3.6332,3.6465,3.6477,3.6489,3.6531,3.6547,3.6353,3.6353,3.6352,3.6352,0,3.5653,3.573,3.5788,3.5873,3.5923,3.6004,3.6037,3.6085,3.6092,3.6119,3.6219,3.6269,3.6346,3.6375,3.6382,3.6493,3.6479,3.6461,3.6419,3.6508,3.6547,3.6563,3.6357,3.6356,3.6355,3.6354,0,0,3.5778,3.5873,3.5894,3.5932,3.6007,3.6066,3.6146,3.6223,3.6263,3.6322,3.6389,3.649,3.6474,3.6517,3.6529,3.6582,3.6676,3.6557,3.6558,3.6577,3.6801,3.6814,3.6832,3.6672,3.6675,3.6678,3.6796,0,3.5892,3.6037,3.6058,3.6185,3.6255,3.6254,3.6324,3.6377,3.6405,3.6467,3.6497,3.6569,3.6542,3.6568,3.662,3.6653,3.6721,3.6645,3.6733,3.6736,3.6718,3.6853,3.6868,3.6977,3.6811,3.6814,3.6816,0,3.6045,3.6109,3.6243,3.6308,3.6338,3.6401,3.6472,3.6533,3.6592,3.6608,3.6657,3.6662,3.6744,3.6699,3.6812,3.676,3.6797,3.6819,3.6824,3.6832,3.6781,3.6865,3.7012,3.7028,3.684,3.6838,3.6837,0,3.6122,3.6242,3.6338,3.637,3.6448,3.6492,3.6526,3.6582,3.6627,3.6689,3.6717,3.6788,3.6826,3.688,3.6904,3.6869,3.7015,3.6972,3.703,3.7029,3.706,3.7058,3.7214,3.7085,3.7085,3.7084,3.7084,0,3.6247,3.6329,3.6373,3.6432,3.6523,3.6547,3.6636,3.6668,3.6718,3.6782,3.6785,3.6845,3.6873,3.6937,3.6955,3.7045,3.7063,3.7077,3.7081,3.7077,3.7075,3.7101,3.7094,3.7089,3.7088,3.7087,3.7086,0,3.6349,3.6382,3.6486,3.6552,3.657,3.6634,3.6689,3.6745,3.6773,3.6854,3.6874,3.6916,3.6992,3.7021,3.7112,3.7124,3.7228,3.7226,3.7209,3.721,3.7266,3.726,3.7445,3.747,3.7324,3.7325,3.7326,0,3.6427,3.649,3.6562,3.6606,3.6642,3.6712,3.6758,3.6783,3.683,3.6902,3.6949,3.7024,3.7086,3.7205,3.7244,3.7313,3.7313,3.7373,3.7323,3.7317,3.7313,3.7309,3.7315,3.7381,3.7383,3.7384,3.7385,0,3.6561,3.6574,3.664,3.6713,3.6767,3.6825,3.6881,3.6916,3.695,3.7002,3.708,3.7128,3.7221,3.7295,3.7367,3.7401,3.7399,3.7401,3.7418,3.7414,3.7401,3.7408,3.7233,3.7396,3.7395,3.7394,3.7394,3.7393,3.6652,3.6708,3.6768,3.6842,3.6887,3.6939,3.6995,3.703,3.7095,3.7175,3.7185,3.7268,3.7324,3.742,3.7457,3.7521,3.7505,3.753,3.7536,3.7542,3.7546,3.7391,3.7534,3.7534,3.7534,3.7534,3.7533,0,3.6786,3.6825,3.6892,3.6971,3.7029,3.7023,3.7085,3.7133,3.7206,3.726,3.732,3.7409,3.7481,3.7525,3.7597,3.764,3.764,3.7658,3.7654,3.7662,3.7556,3.7534,3.7656,3.7656,3.7656,3.7656,3.7656,3.7656,3.6862,3.6957,3.6977,3.7093,3.713,3.7213,3.7248,3.7296,3.7339,3.7438,3.7498,3.7527,3.7576,3.7652,3.7717,3.7728,3.7754,3.7773,3.7782,3.7682,3.767,3.7658,3.7637,3.7779,3.7779,3.7883,3.7884,3.7885]}]]